Flag for Brazil Past Weather in Governador Valadares, Minas Gerais, Brazil — Yesterday and Last 2 Weeks

Now
64 °F

Sunny.


Feels Like: 64 °F
Forecast: 63 / 82 °F
Wind: 6 mph from Southeast

Location: Belo Horizonte Airport

Current Time: Jul 26, 2016 at 9:21:48 AM

Latest Report: Jul 26, 2016 at 9:00 AM


Visibility: 10 mi

Pressure: 30.24 "Hg

Humidity: 68%

Dew Point: 54 °F

Location of Governador ValadaresLocation

Past Weather in Governador Valadares — Graph

°F

Governador Valadares Temperature Yesterday

Maximum temperature yesterday: 79 °F (at 12:00 PM)
Minimum temperature yesterday: 55 °F (at 4:00 AM)
Average temperature yesterday: 67 °F

High & Low Weather Summary for the Past Weeks

 TemperatureHumidityPressure
High86 °F (Jul 16, 2:00 PM)94% (Jul 14, 7:00 AM)30.33 "Hg (Jul 14, 7:00 AM)
Low46 °F (Jul 18, 6:00 AM)16% (Jul 18, 4:00 PM)29.98 "Hg (Jul 16, 3:00 PM)
Average67 °F60%30.14 "Hg
* Reported Jul 11 8:00 AM — Jul 26 8:00 AM, Governador Valadares, Weather by CustomWeather, © 2016

Note: Actual official high and low records may vary slightly from our data, if they occured in-between our weather recording intervals... More about our weather records

Advertising

Governador Valadares Weather History for the Previous 24 Hours

Scroll right to see more
 ConditionsComfort  
Time TempWeatherWind HumidityBarometerVisibility
8:00 AM
Tue, Jul 26
57 °FSunny.5 mph77%30.21 "Hg10 mi
7:00 AM57 °FSunny.3 mph77%30.21 "Hg10 mi
6:00 AM55 °FClear.2 mph77%30.18 "Hg10 mi
5:00 AM57 °FClear.3 mph77%30.18 "Hg10 mi
4:00 AM59 °FClear.2 mph72%30.21 "Hg10 mi
3:00 AM59 °FClear.3 mph72%30.21 "Hg10 mi
2:00 AM61 °FClear.2 mph68%30.21 "Hg10 mi
1:00 AM61 °FClear.2 mph68%30.21 "Hg10 mi
12:00 AM61 °FClear.1 mph68%30.21 "Hg10 mi
11:00 PM
Mon, Jul 25
64 °FClear.1 mph60%30.21 "Hg10 mi
10:00 PM66 °FClear.6 mph56%30.21 "Hg10 mi
9:00 PM68 °FClear.10 mph53%30.21 "Hg10 mi
8:00 PM68 °FClear.8 mph53%30.18 "Hg10 mi
7:00 PM70 °FClear.7 mph46%30.18 "Hg10 mi
6:00 PM73 °FClear.8 mph41%30.18 "Hg10 mi
5:00 PM75 °FSunny.9 mph41%30.15 "Hg10 mi
4:00 PM79 °FSunny.9 mph37%30.15 "Hg10 mi
3:00 PM77 °FPassing clouds.9 mph36%30.15 "HgN/A
2:00 PM79 °FPassing clouds.6 mph32%30.15 "HgN/A
1:00 PM77 °FPassing clouds.6 mph32%30.18 "HgN/A
12:00 PM79 °FPassing clouds.5 mph30%30.21 "HgN/A
11:00 AM75 °FSunny.6 mph41%30.24 "Hg10 mi
10:00 AM70 °FSunny.3 mph57%30.27 "Hg10 mi
9:00 AM63 °FSunny.2 mph73%30.27 "Hg10 mi
Weather by CustomWeather, © 2016

See weather overviewHow to use our weather pages